TimeCST,TemperatureF,Dew PointF,Humidity,Sea Level PressureIn,VisibilityMPH,Wind Direction,Wind SpeedMPH,Gust SpeedMPH,PrecipitationIn,Events,Conditions,WindDirDegrees,DateUTC
12:13 AM,26.6,15.8,64,30.00,10.0,NNW,5.8,-,N/A,,Clear,340,2013-02-27 06:13:00
12:33 AM,26.6,15.8,64,30.00,10.0,NNW,5.8,-,N/A,,Clear,340,2013-02-27 06:33:00
12:53 AM,26.6,15.8,64,30.00,10.0,NNW,6.9,-,N/A,,Clear,340,2013-02-27 06:53:00
1:13 AM,26.6,15.8,64,29.99,10.0,North,6.9,-,N/A,,Clear,350,2013-02-27 07:13:00
1:33 AM,26.6,14.0,59,29.99,10.0,NNW,5.8,-,N/A,,Clear,340,2013-02-27 07:33:00
2:13 AM,24.8,14.0,64,29.99,10.0,NNW,4.6,-,N/A,,Clear,340,2013-02-27 08:13:00
2:53 AM,24.8,14.0,64,29.98,10.0,NNW,5.8,-,N/A,,Clear,340,2013-02-27 08:53:00
3:13 AM,24.8,14.0,64,29.98,10.0,NNW,4.6,-,N/A,,Clear,340,2013-02-27 09:13:00
3:33 AM,23.0,12.2,63,29.98,10.0,NNW,4.6,-,N/A,,Clear,340,2013-02-27 09:33:00
3:53 AM,21.2,12.2,68,29.98,10.0,North,4.6,-,N/A,,Clear,350,2013-02-27 09:53:00
4:13 AM,19.4,12.2,74,29.98,10.0,North,3.5,-,N/A,,Clear,350,2013-02-27 10:13:00
4:33 AM,21.2,12.2,68,29.98,10.0,NNW,5.8,-,N/A,,Clear,340,2013-02-27 10:33:00
4:53 AM,21.2,12.2,68,29.98,10.0,North,4.6,-,N/A,,Clear,350,2013-02-27 10:53:00
5:13 AM,19.4,12.2,74,29.98,10.0,Calm,Calm,-,N/A,,Clear,0,2013-02-27 11:13:00
5:33 AM,19.4,12.2,74,29.99,10.0,Calm,Calm,-,N/A,,Clear,0,2013-02-27 11:33:00
5:53 AM,19.4,12.2,74,29.99,10.0,Calm,Calm,-,N/A,,Clear,0,2013-02-27 11:53:00
6:13 AM,19.4,12.2,74,29.99,10.0,NNW,3.5,-,N/A,,Clear,330,2013-02-27 12:13:00
6:33 AM,19.4,12.2,74,29.99,10.0,NW,4.6,-,N/A,,Clear,320,2013-02-27 12:33:00
6:53 AM,19.4,12.2,74,29.99,10.0,NNW,3.5,-,N/A,,Clear,330,2013-02-27 12:53:00
7:13 AM,19.4,12.2,74,29.99,10.0,NNW,5.8,-,N/A,,Clear,340,2013-02-27 13:13:00
7:33 AM,19.4,12.2,74,29.99,10.0,NNW,4.6,-,N/A,,Clear,340,2013-02-27 13:33:00
7:53 AM,21.2,12.2,68,29.99,10.0,NNW,4.6,-,N/A,,Clear,340,2013-02-27 13:53:00
8:13 AM,21.2,12.2,68,30.00,10.0,North,6.9,-,N/A,,Clear,360,2013-02-27 14:13:00
8:33 AM,23.0,14.0,68,30.00,10.0,North,4.6,-,N/A,,Clear,350,2013-02-27 14:33:00
9:13 AM,28.4,17.6,64,30.00,10.0,NNE,5.8,-,N/A,,Clear,30,2013-02-27 15:13:00
9:33 AM,28.4,17.6,64,30.00,10.0,Calm,Calm,-,N/A,,Clear,0,2013-02-27 15:33:00
9:53 AM,30.2,17.6,60,30.00,10.0,Calm,Calm,-,N/A,,Clear,0,2013-02-27 15:53:00
10:13 AM,33.8,19.4,56,29.99,10.0,NNE,4.6,-,N/A,,Clear,30,2013-02-27 16:13:00
10:33 AM,33.8,19.4,56,29.99,10.0,North,4.6,-,N/A,,Clear,360,2013-02-27 16:33:00
10:53 AM,35.6,19.4,52,29.98,10.0,North,5.8,-,N/A,,Clear,10,2013-02-27 16:53:00
11:13 AM,35.6,19.4,52,29.98,10.0,North,5.8,-,N/A,,Clear,10,2013-02-27 17:13:00
11:33 AM,37.4,19.4,48,29.98,10.0,North,8.1,-,N/A,,Clear,10,2013-02-27 17:33:00
11:53 AM,39.2,19.4,45,29.98,10.0,NNE,9.2,-,N/A,,Clear,30,2013-02-27 17:53:00
12:13 PM,39.2,19.4,45,29.98,10.0,North,8.1,-,N/A,,Clear,360,2013-02-27 18:13:00
12:53 PM,39.2,17.6,42,29.97,10.0,North,10.4,18.4,N/A,,Clear,350,2013-02-27 18:53:00
1:13 PM,41.0,19.4,42,29.96,10.0,North,9.2,-,N/A,,Clear,10,2013-02-27 19:13:00
1:33 PM,39.2,17.6,42,29.97,10.0,NNE,16.1,23.0,N/A,,Clear,20,2013-02-27 19:33:00
1:53 PM,39.2,17.6,42,29.97,10.0,NNE,13.8,17.3,N/A,,Clear,30,2013-02-27 19:53:00
2:13 PM,37.4,19.4,48,29.97,10.0,NNE,12.7,18.4,N/A,,Clear,20,2013-02-27 20:13:00
2:33 PM,37.4,19.4,48,29.98,10.0,NNE,12.7,18.4,N/A,,Clear,20,2013-02-27 20:33:00
2:53 PM,35.6,21.2,56,29.99,10.0,NNE,11.5,20.7,N/A,,Clear,20,2013-02-27 20:53:00
3:13 PM,35.6,21.2,56,30.00,10.0,North,13.8,19.6,N/A,,Clear,10,2013-02-27 21:13:00
3:33 PM,35.6,21.2,56,30.00,10.0,North,12.7,20.7,N/A,,Clear,10,2013-02-27 21:33:00
3:53 PM,33.8,21.2,60,30.02,10.0,NNE,10.4,19.6,N/A,,Clear,20,2013-02-27 21:53:00
4:13 PM,32.0,21.2,64,30.03,10.0,NNE,12.7,17.3,N/A,,Scattered Clouds,20,2013-02-27 22:13:00
4:33 PM,30.2,21.2,69,30.04,10.0,NNE,10.4,17.3,N/A,,Mostly Cloudy,30,2013-02-27 22:33:00
4:53 PM,30.2,19.4,64,30.05,10.0,NNE,9.2,19.6,N/A,,Overcast,30,2013-02-27 22:53:00
5:13 PM,30.2,19.4,64,30.05,10.0,North,9.2,18.4,N/A,,Overcast,360,2013-02-27 23:13:00
5:33 PM,28.4,19.4,69,30.06,10.0,North,10.4,18.4,N/A,,Overcast,10,2013-02-27 23:33:00
5:53 PM,28.4,21.2,74,30.06,10.0,North,12.7,19.6,N/A,,Overcast,10,2013-02-27 23:53:00
6:13 PM,28.4,19.4,69,30.07,10.0,NNE,13.8,20.7,N/A,,Overcast,20,2013-02-28 00:13:00
6:33 PM,28.4,19.4,69,30.07,10.0,North,6.9,18.4,N/A,,Overcast,10,2013-02-28 00:33:00
6:53 PM,28.4,19.4,69,30.08,10.0,NNE,10.4,16.1,N/A,,Overcast,30,2013-02-28 00:53:00
7:13 PM,28.4,19.4,69,30.08,10.0,NNE,6.9,16.1,N/A,,Overcast,20,2013-02-28 01:13:00
7:33 PM,28.4,19.4,69,30.08,10.0,NNE,9.2,-,N/A,,Overcast,30,2013-02-28 01:33:00
7:53 PM,28.4,21.2,74,30.08,10.0,NNE,8.1,-,N/A,,Overcast,20,2013-02-28 01:53:00
8:13 PM,28.4,19.4,69,30.09,10.0,NNE,12.7,19.6,N/A,,Overcast,30,2013-02-28 02:13:00
8:33 PM,28.4,19.4,69,30.09,10.0,North,8.1,-,N/A,,Overcast,10,2013-02-28 02:33:00
8:53 PM,28.4,19.4,69,30.10,10.0,NNE,11.5,17.3,N/A,,Overcast,20,2013-02-28 02:53:00
9:13 PM,26.6,19.4,74,30.10,10.0,North,10.4,17.3,N/A,,Overcast,10,2013-02-28 03:13:00
9:33 PM,26.6,19.4,74,30.10,10.0,North,11.5,18.4,N/A,,Overcast,10,2013-02-28 03:33:00
9:53 PM,26.6,19.4,74,30.10,10.0,North,16.1,23.0,N/A,,Overcast,10,2013-02-28 03:53:00
10:13 PM,26.6,19.4,74,30.11,10.0,North,9.2,-,N/A,,Overcast,10,2013-02-28 04:13:00
10:33 PM,26.6,19.4,74,30.11,10.0,NNE,11.5,20.7,N/A,,Overcast,30,2013-02-28 04:33:00
10:53 PM,26.6,19.4,74,30.11,10.0,NNE,10.4,-,N/A,,Overcast,30,2013-02-28 04:53:00
11:13 PM,26.6,19.4,74,30.11,10.0,NNE,12.7,19.6,N/A,,Overcast,20,2013-02-28 05:13:00
11:33 PM,26.6,19.4,74,30.12,10.0,NNE,11.5,16.1,N/A,,Overcast,30,2013-02-28 05:33:00